Del Rio, TX

5:21 PM CST on February 25, 2017 (GMT -0600)
Del Rio International

Weather History for KDRT - January, 2013

Change the Weather History Date:

Sunday, January 27, 2013

  Actual Average Record
Temperature  
Mean Temperature 72 °F 53 °F  
Max Temperature 81 °F 65 °F 84 °F (1947)
Min Temperature 62 °F 42 °F 24 °F (1976)
Degree Days  
Heating Degree Days 0 12  
Month to date heating degree days 333 355  
Since 1 July heating degree days 723 946  
Cooling Degree Days 7 0  
Month to date cooling degree days 8 0  
Year to date cooling degree days 8 0  
Growing Degree Days 22 (Base 50)    
Moisture  
Dew Point 57 °F    
Average Humidity 65    
Maximum Humidity 90    
Minimum Humidity 39    
Precipitation  
Precipitation 0.00 in 0.02 in 0.78 in (1931)
Month to date precipitation 1.33 0.62  
Year to date precipitation 1.33 0.62  
Sea Level Pressure  
Sea Level Pressure 29.94 in    
Wind  
Wind Speed 10 mph (ESE)    
Max Wind Speed 18 mph    
Max Gust Speed 22 mph    
Visibility 10 miles    
Events      
T = Trace of Precipitation, MM = Missing Value Source: NWS Daily Summary

Daily Weather History Graph

Daily Weather History Graph

Search for Another Location

Airport or City:

Trip Planner

Search our weather history database for the weather conditions in past years. The results will help you decide how hot, cold, wet, or windy it might be!

Date:

Astronomy

Jan. 27, 2013 Rise Set
Actual Time 7:35 AM CST 6:18 PM CST
Civil Twilight 7:10 AM CST 6:43 PM CST
Nautical Twilight 6:41 AM CST 7:11 PM CST
Astronomical Twilight 6:13 AM CST 7:40 PM CST
Moon 7:05 PM CST (1/27) 7:35 AM CST (1/27)
Length of Visible Light 11h 32m
Length of Day
10h 42m
Full, 100% of the Moon is Illuminated
Jan 27
Full
Feb 3
Last Quarter
Feb 10
New
Feb 17
First Quarter
Feb 25
Full

Hourly Weather History & Observations

Time (CST) Temp. Heat Index Dew Point Humidity Pressure Visibility Wind Dir Wind Speed Gust Speed Precip Events Conditions
12:53 AM 64.9 °F - 48.0 °F 54% 29.98 in 10.0 mi ESE 8.1 mph - N/A   Clear
1:53 AM 63.0 °F - 52.0 °F 67% 29.98 in 10.0 mi ESE 8.1 mph - N/A   Clear
2:53 AM 63.0 °F - 55.9 °F 78% 29.97 in 10.0 mi ESE 10.4 mph - N/A   Clear
3:48 AM 62.6 °F - 55.4 °F 77% 29.99 in 10.0 mi ESE 10.4 mph - N/A   Mostly Cloudy
3:53 AM 63.0 °F - 55.9 °F 78% 29.96 in 10.0 mi ESE 10.4 mph - N/A   Mostly Cloudy
4:53 AM 63.0 °F - 57.0 °F 81% 29.95 in 10.0 mi ESE 11.5 mph - N/A   Overcast
5:53 AM 63.0 °F - 57.9 °F 84% 29.95 in 10.0 mi ESE 10.4 mph - N/A   Mostly Cloudy
6:53 AM 63.0 °F - 59.0 °F 87% 29.96 in 10.0 mi ESE 11.5 mph - N/A   Mostly Cloudy
7:10 AM 62.6 °F - 59.0 °F 88% 30.00 in 10.0 mi ESE 9.2 mph - N/A   Overcast
7:25 AM 62.6 °F - 59.0 °F 88% 30.00 in 10.0 mi ESE 8.1 mph - N/A   Mostly Cloudy
7:53 AM 63.0 °F - 59.0 °F 87% 29.98 in 10.0 mi ESE 9.2 mph - N/A   Mostly Cloudy
8:26 AM 62.6 °F - 59.0 °F 88% 30.01 in 10.0 mi ESE 10.4 mph - N/A   Scattered Clouds
8:53 AM 64.0 °F - 59.0 °F 84% 29.98 in 10.0 mi ESE 12.7 mph - N/A   Scattered Clouds
9:22 AM 64.4 °F - 60.8 °F 88% 30.01 in 10.0 mi SE 13.8 mph - N/A   Mostly Cloudy
9:29 AM 64.4 °F - 60.8 °F 88% 30.01 in 10.0 mi SE 11.5 mph - N/A   Mostly Cloudy
9:53 AM 66.0 °F - 59.0 °F 78% 29.99 in 10.0 mi SE 10.4 mph - N/A   Overcast
10:53 AM 68.0 °F - 57.9 °F 70% 29.99 in 10.0 mi SE 12.7 mph - N/A   Mostly Cloudy
11:53 AM 69.1 °F - 57.9 °F 68% 29.98 in 10.0 mi SE 9.2 mph - N/A   Mostly Cloudy
12:10 PM 69.8 °F - 57.2 °F 64% 30.01 in 10.0 mi SE 11.5 mph - N/A   Scattered Clouds
12:53 PM 73.0 °F - 57.0 °F 57% 29.94 in 10.0 mi SE 10.4 mph - N/A   Clear
1:53 PM 75.9 °F - 55.9 °F 50% 29.90 in 10.0 mi SE 11.5 mph - N/A   Clear
2:53 PM 79.0 °F - 55.0 °F 44% 29.87 in 10.0 mi SE 13.8 mph 17.3 mph N/A   Clear
3:53 PM 81.0 °F 80.4 °F 53.1 °F 38% 29.86 in 10.0 mi SE 9.2 mph 18.4 mph N/A   Clear
4:53 PM 81.0 °F 80.5 °F 54.0 °F 39% 29.84 in 10.0 mi SE 12.7 mph - N/A   Clear
5:53 PM 79.0 °F - 54.0 °F 42% 29.85 in 10.0 mi SE 10.4 mph - N/A   Clear
6:53 PM 75.9 °F - 54.0 °F 46% 29.87 in 10.0 mi ESE 5.8 mph - N/A   Clear
7:53 PM 72.0 °F - 53.1 °F 51% 29.88 in 10.0 mi ESE 4.6 mph - N/A   Clear
8:53 PM 71.1 °F - 54.0 °F 55% 29.90 in 10.0 mi ESE 6.9 mph - N/A   Clear
9:53 PM 69.1 °F - 54.0 °F 58% 29.91 in 10.0 mi East 8.1 mph - N/A   Clear
10:53 PM 68.0 °F - 57.9 °F 70% 29.92 in 10.0 mi East 8.1 mph - N/A   Clear
11:53 PM 66.9 °F - 59.0 °F 76% 29.91 in 10.0 mi East 11.5 mph - N/A   Clear